GFSMA_con_mucape_021.txt.gz
CAPE
1669 1705 2118 2085 1985 1967 1809 2423 2134 2074 1968 1842 1861 1760 1596 1644 1737 1567 1592 1224 1953 2327 1809 1498 1512 1725 1290 931 779 1405 1185 1078 634 1038 647 638 612 303 674 795 693 570 646
1724 1795 2106 2173 2556 1834 1876 2132 2126 2259 1941 1803 1694 1666 1574 1382 1277 1395 1389 1579 1341 1984 2224 1811 2007 1725 1485 1475 906 722 930 1535 1181 788 976 1596 1289 919 595 653 669 582 788
1982 2000 2609 2338 1970 1845 2004 1904 2133 1738 1869 1645 1553 1129 947 788 660 837 962 1174 1419 1379 1705 2036 2006 2276 1622 1369 1539 1508 1806 1754 1801 1695 1485 1514 1720 1495 1448 1390 1153 1214 1462
2412 2471 2269 2680 1802 1802 1641 1890 1725 1505 1384 1135 1099 920 784 675 576 619 673 800 743 1058 1421 1632 2051 2275 1972 1209 1744 1609 1723 1871 1916 2083 1830 1761 1717 1573 1499 1636 1721 1652 1532
2343 2449 2650 2767 1672 1797 2149 1517 1342 1292 867 751 488 400 508 539 564 436 749 1015 895 902 1109 1435 1582 1823 1599 1420 2101 1940 1856 1902 1842 1944 1823 2020 2048 1811 1715 1714 1753 1824 1668
2326 2520 2461 2116 1876 1792 1315 858 807 586 610 564 320 236 387 482 404 532 921 394 911 896 1343 1649 1705 1559 1295 1452 1964 1699 2002 2078 2032 2176 2138 1898 1926 2083 1877 1773 1760 1852 1882
2142 2211 1855 1774 1738 1329 844 764 464 441 278 561 347 61 143 296 311 426 518 84 93 122 512 1003 1516 1551 1537 1203 1131 1403 1575 1668 1640 1739 2154 1713 1948 2008 1981 1814 1717 1755 1779
2495 2052 2099 1705 1479 937 924 579 472 71 230 565 173 161 6 196 297 341 192 6 0 25 10 20 260 769 1156 1307 991 650 646 996 1384 1714 1922 1602 1528 1559 1849 1907 1732 1715 1747
2359 2224 1720 1481 1421 895 296 416 287 360 20 173 281 196 2 0 53 145 301 2 0 0 0 0 0 0 6 90 151 194 220 231 367 568 681 961 1710 1778 1673 1667 1786 1751 1701
2106 1920 1585 1484 1208 469 377 338 185 162 152 4 173 235 212 169 2 0 0 0 0 0 0 0 0 0 0 0 0 0 0 9 63 125 244 468 537 895 1643 1842 1634 1730 1695
1871 1858 1543 1031 700 268 519 264 177 213 107 87 93 123 175 21 10 0 0 0 0 0 0 0 0 0 0 0 0 0 0 0 0 0 0 14 90 451 580 716 1756 1935 2008
598 659 568 583 597 445 238 149 127 150 144 198 97 74 0 0 0 0 2 0 0 0 0 0 0 0 0 0 0 0 0 0 0 0 0 0 0 27 220 588 756 1703 2005
398 292 566 645 532 345 221 141 181 72 106 88 246 0 0 3 13 0 1 2 0 0 0 0 0 0 0 0 0 0 0 0 0 0 0 0 0 0 3 82 273 707 958
126 386 568 598 422 203 137 100 85 118 107 136 229 170 65 61 44 30 22 9 0 0 0 0 0 0 0 0 0 0 0 0 0 0 0 0 0 0 0 0 9 75 282
151 316 421 463 207 63 110 225 94 264 222 270 204 275 196 80 73 68 64 43 23 4 0 0 0 0 0 0 0 0 0 0 0 0 0 0 0 0 0 0 0 2 19
181 350 391 275 183 172 202 293 145 90 195 206 165 241 276 104 119 129 72 92 63 23 2 0 2 0 0 0 0 0 0 0 0 0 0 0 0 0 0 0 0 0 2
94 302 257 198 283 288 249 290 253 174 235 300 296 308 382 349 181 165 169 155 116 82 47 0 6 6 3 5 23 46 1 0 0 0 0 0 0 0 0 0 0 0 0
13 59 193 269 317 327 267 332 299 102 258 291 205 365 379 242 455 696 463 393 200 188 120 63 50 53 63 66 124 146 106 0 0 0 0 0 0 0 0 0 0 0 0
32 33 90 273 260 328 353 393 309 310 288 209 292 391 418 419 448 606 537 205 137 177 147 85 58 44 70 53 32 102 102 63 7 0 0 0 0 0 0 0 0 0 0
0 15 16 65 238 427 373 308 277 362 387 361 384 490 552 277 299 436 413 355 330 276 220 77 70 56 59 88 52 40 54 41 34 12 0 0 0 0 0 0 0 0 0
22 16 5 36 131 240 223 274 319 522 756 652 555 605 418 262 120 56 118 142 214 171 122 127 106 73 58 47 64 66 49 57 100 30 9 3 1 1 0 0 3 0 0
260 90 9 27 177 182 32 0 217 724 891 746 670 631 500 70 49 0 14 25 56 172 234 272 144 124 133 197 83 73 45 14 13 14 34 5 8 3 4 8 5 2 0
359 95 55 114 303 360 65 36 49 619 954 860 790 721 476 122 28 45 8 0 6 0 34 119 77 87 119 131 101 26 26 36 37 30 27 4 14 29 9 19 0 0 0
466 263 196 352 365 584 158 101 140 450 736 801 785 742 407 205 44 6 24 31 48 40 60 8 11 12 7 3 11 27 16 13 32 22 90 54 50 7 0 0 0 0 0
327 182 275 430 516 850 175 113 67 76 93 154 428 182 45 21 0 0 0 4 13 2 1 0 0 0 0 0 0 0 0 46 27 19 9 43 0 0 0 0 0 0 0
360 288 283 361 324 639 118 52 50 38 50 54 15 22 39 2 0 0 0 1 3 2 2 0 0 4 4 1 0 2 6 52 48 17 1 0 0 1 0 0 0 0 0

GFSMA_con_mucape_024.txt.gz
CAPE
1758 1918 1908 1467 1527 1548 1788 1766 1814 1897 2074 1855 1880 1929 1861 1818 1860 1673 1497 1783 1967 2283 1862 1901 1905 1800 1623 1238 1220 1768 1221 908 485 685 757 1159 982 642 699 611 801 836 704
1855 2134 1587 1704 1521 1588 1906 1902 1849 1951 1983 1912 1790 1617 1797 1653 1520 1641 1562 1824 1685 1889 2483 2174 2139 1894 1828 1714 1220 963 1540 1586 1400 885 1409 1388 1364 1029 590 724 920 801 720
1891 2345 1588 1416 1365 2079 2169 1783 1820 1817 1621 1401 1342 1405 1282 1013 726 723 688 773 1492 1819 1975 2313 2473 2004 2352 1671 1722 1841 1549 1761 2055 1985 1701 1666 1611 1624 1549 1394 1341 1377 1319
2458 2283 2777 1313 1337 2020 1882 1689 1737 739 391 302 286 392 413 289 132 204 237 349 126 420 1757 2251 2030 1836 1650 1461 1646 1947 1799 1984 2044 2391 2080 1937 1888 2027 1941 1826 1772 1740 1674
1749 1887 1595 1651 2094 1860 1681 1453 646 611 160 30 0 0 8 133 158 214 484 634 479 465 357 2050 1726 1545 1631 1631 1733 2420 2312 2063 1837 2227 2450 2356 2026 1986 1877 1739 1647 1800 1899
1870 1938 1525 1678 1641 2106 1747 894 1049 276 17 34 19 0 79 159 273 459 621 404 899 850 930 1201 1204 1368 1590 1428 1894 1880 1777 1919 1979 1829 2054 2097 2051 2145 2037 1875 1779 1853 1908
1884 2095 1595 1573 1515 1785 1181 1074 384 0 0 57 46 2 8 136 190 362 520 258 324 478 778 1032 1303 1002 1527 1319 1193 1422 1478 1715 2247 2190 2032 1897 1871 1902 2030 2021 1859 1892 1902
2323 1871 1990 1757 1742 789 1353 810 90 0 0 92 13 1 5 194 182 245 174 14 33 75 147 356 1013 1333 1380 1769 1249 549 457 759 1144 1337 1770 1826 1785 1644 1789 1788 1812 1794 1823
2405 2318 1981 1847 1965 1398 266 155 39 60 0 0 162 36 10 11 3 211 301 3 0 0 0 19 17 0 0 65 187 157 233 265 242 418 593 644 676 763 1713 1697 1691 1802 1722
2199 2247 2302 2087 2134 638 107 23 19 49 87 0 8 51 161 302 44 41 26 5 0 0 0 0 0 0 0 0 0 0 0 0 0 12 85 150 249 434 690 1286 1421 1589 1699
2411 1867 2332 1993 1571 166 229 252 99 50 0 28 18 8 40 16 16 4 5 17 4 0 0 0 0 0 0 0 0 0 0 0 0 0 0 0 4 17 132 584 852 1264 1671
1700 2250 2126 1843 870 105 558 275 96 55 133 126 57 50 14 6 14 15 14 23 18 5 0 0 0 0 0 0 0 0 0 0 0 0 0 0 0 0 0 48 255 718 904
524 1347 1521 1115 785 919 671 217 198 78 89 72 124 24 24 27 27 30 11 3 12 8 2 0 0 0 0 0 0 0 0 0 0 0 0 0 0 0 0 0 6 72 417
342 884 935 904 883 828 628 331 93 144 81 90 83 198 25 15 24 28 38 32 14 5 14 12 3 0 0 0 0 0 0 0 0 0 0 0 0 0 0 0 0 0 1
374 602 857 827 873 822 450 331 180 218 162 108 60 198 216 16 28 33 41 40 39 34 33 43 22 8 1 4 7 0 0 0 0 0 0 0 0 0 0 0 0 0 0
626 492 715 702 686 611 352 588 192 156 228 47 69 107 296 51 39 54 66 54 55 55 33 35 16 25 28 4 25 5 23 1 0 0 0 0 0 0 0 0 0 0 0
809 936 1018 637 726 443 525 688 440 81 190 289 268 247 312 457 207 97 103 123 102 61 15 2 8 24 43 86 59 59 55 72 15 0 0 0 0 0 0 0 0 0 0
485 693 601 734 692 658 661 569 441 97 238 307 252 320 365 249 393 559 131 273 152 192 109 275 236 23 351 103 98 180 138 33 17 6 0 0 0 0 0 0 0 0 0
331 122 430 487 470 602 906 800 528 329 323 293 313 396 386 365 446 344 255 123 108 204 169 148 71 12 29 70 160 163 148 315 30 32 1 0 0 0 0 0 0 0 0
357 327 89 480 717 754 592 429 552 516 430 417 539 604 558 477 455 379 337 282 283 225 294 146 112 116 99 136 269 98 87 61 39 67 66 5 1 0 0 0 0 0 0
445 198 180 239 479 392 225 526 522 527 601 745 735 674 709 615 495 212 192 255 478 198 125 104 78 110 128 339 428 148 49 58 197 266 73 13 8 13 7 2 0 0 0
715 414 286 271 410 201 0 25 424 496 597 893 881 815 782 613 198 76 17 4 23 87 128 99 43 295 302 231 126 106 66 58 68 79 171 56 101 93 41 28 4 0 0
856 874 646 417 386 390 31 17 37 397 553 1150 1089 1199 889 586 222 398 173 29 3 10 3 83 140 182 144 159 201 224 72 50 30 18 259 116 141 74 49 56 14 1 0
1329 1307 1017 705 689 469 323 198 33 365 813 1124 222 167 203 236 876 342 209 186 152 135 172 142 172 135 102 65 31 11 25 24 25 18 312 184 161 78 93 49 1 0 0
1310 1317 1052 783 1112 961 470 415 171 440 575 114 97 94 101 103 66 26 75 88 111 122 18 0 0 0 0 0 0 13 8 23 56 60 121 92 62 97 93 14 0 2 1
1134 989 927 1218 672 1043 510 518 283 641 330 153 93 47 13 23 13 18 24 60 83 72 67 17 10 7 5 27 6 20 14 104 136 60 35 92 61 38 0 0 0 0 0

GFSMA_con_mucape_030.txt.gz
CAPE
1909 2288 2004 2733 2758 2280 2382 1453 1194 2837 1905 2257 2027 2069 1687 1819 1686 1486 1709 1085 2626 2673 2479 2314 2399 2100 1539 1446 1783 1632 1198 645 696 1397 1254 1343 1420 1355 1228 1037 818 1036 1104
1633 1927 3186 2777 1433 1752 1855 2594 2801 2787 3004 2525 2331 2172 1810 2192 1676 1411 2035 2193 2615 2676 2964 2792 2496 2504 2202 1894 1373 1967 1661 1455 1289 949 1249 1309 1492 1394 1437 1191 1117 1052 1433
3493 3166 2937 3149 2006 1920 2926 1897 2193 1916 2363 2272 1434 2379 1761 1952 1421 668 447 403 2090 2921 2903 2858 2618 2833 2463 2068 1916 1766 2392 2139 2020 1812 1339 1608 1748 1879 1793 1543 1220 1468 1582
3003 3607 3362 2881 3012 3249 1601 1724 2320 1706 1305 618 212 649 512 265 273 163 247 573 618 863 2334 2528 2980 2614 2448 1619 1827 1825 2162 2205 2384 2197 1640 1874 2062 2019 1892 1776 1739 1752 1695
3395 2917 2713 2316 2430 2169 2300 1732 1967 1301 702 197 22 101 442 147 344 86 420 539 650 605 1272 2457 2633 2650 2056 1603 1932 2123 2070 2234 1843 1918 2352 2194 1845 1944 2014 1969 1920 1924 1878
2521 2395 2788 2592 2373 2519 2218 1732 1053 1218 439 589 19 13 71 177 625 814 236 433 698 594 1084 1476 1557 1560 1534 1444 1941 2419 1916 2017 2243 2052 1964 1997 2000 2015 2171 2109 2009 1923 1991
2761 2678 3406 2352 1950 2434 2115 1584 1427 578 491 1103 417 449 858 346 347 433 96 312 420 484 898 1656 1443 1476 1652 1503 1563 1784 1581 1434 1255 1623 1830 1993 1938 1905 2025 2052 2005 2059 2012
2838 3312 3379 2272 1986 1489 1864 1876 1090 646 133 1018 349 192 164 559 27 100 387 21 11 144 808 783 861 984 1606 1714 821 629 638 792 984 1275 1296 1227 1382 1543 1680 1910 1803 1903 1949
3091 3065 2566 2768 2263 2181 2112 1714 1027 481 350 937 234 419 496 220 378 658 734 22 18 22 155 127 2 23 442 1011 392 21 26 105 242 255 340 558 608 771 865 1028 1225 1529 1622
2649 2970 3293 2909 2203 2454 1871 1454 1106 564 490 197 791 529 303 131 527 157 352 120 4 0 0 3 0 0 0 0 6 0 0 0 0 0 0 2 20 75 257 376 835 1320 1520
2138 2905 2583 2789 3090 2015 1567 927 1086 675 663 479 705 570 693 447 506 54 126 49 114 26 6 0 0 0 0 0 0 0 0 0 0 0 0 0 0 0 0 0 0 357 1134
2194 2855 2316 2961 2791 2010 1602 673 779 511 450 672 484 635 321 370 133 470 171 50 38 110 56 20 0 2 0 0 0 0 0 0 0 0 0 0 0 0 0 0 0 0 0
1481 2208 2975 2795 2340 1988 1789 1435 848 1094 735 603 1189 423 270 362 352 194 74 31 69 69 89 59 45 28 13 0 0 0 0 0 0 0 0 0 0 0 0 0 0 0 0
1447 2010 2354 2619 2165 1718 1706 1221 797 500 727 668 424 764 324 238 257 552 322 97 1 14 64 191 185 80 69 38 0 0 0 0 0 0 0 0 0 0 0 0 0 0 0
2848 2021 2071 2398 1999 1693 1332 1370 791 661 856 1176 818 938 822 447 421 384 397 70 278 33 19 63 70 123 213 22 122 3 23 42 18 0 0 0 0 0 0 0 0 0 0
2635 2293 2087 2052 1829 1710 1549 1620 854 1239 1125 1094 795 875 903 418 557 529 95 295 134 100 36 49 25 114 602 279 117 67 63 35 35 3 0 0 0 0 0 0 0 0 0
2815 2164 1950 1759 1807 1705 1546 1336 1136 1113 1039 956 568 706 459 760 444 407 663 498 447 235 118 65 150 177 451 526 398 482 360 73 55 43 21 8 0 0 0 0 0 0 0
2902 2061 1928 1854 1619 1485 1407 1323 837 489 974 1050 957 1025 820 626 1011 1119 733 790 592 528 220 196 216 334 223 590 869 579 482 44 58 45 30 9 5 1 0 0 0 0 0
3179 2167 1972 1761 1657 1332 1298 1119 1036 854 909 398 932 930 830 892 1056 629 757 776 586 406 334 199 250 265 124 224 190 342 256 302 120 64 27 8 5 2 0 0 0 0 0
3402 2329 1970 1741 1483 1218 1265 1099 1182 1121 827 736 852 852 922 1028 1069 957 800 406 409 384 223 125 103 98 208 253 168 99 49 69 39 48 32 22 1 0 2 1 0 0 0
3472 2578 1936 1714 1356 771 1071 997 1128 991 884 792 777 873 908 1073 728 461 647 805 208 156 66 55 3 2 10 12 0 2 35 35 23 69 1 0 0 0 0 0 0 0 0
3244 2560 1799 1417 1146 649 468 283 906 866 973 891 866 1211 1180 667 369 209 88 32 71 52 49 44 36 6 1 81 91 51 45 0 0 0 1 0 0 0 0 0 0 0 7
3079 2264 1796 1260 880 803 593 403 623 752 801 856 1086 1240 1303 851 614 337 155 39 45 33 18 46 14 3 55 124 144 99 64 15 3 0 0 0 0 0 0 0 6 15 8
2686 2347 1942 1476 1045 1143 810 602 553 593 717 1123 853 1301 1285 1351 776 509 223 180 202 244 108 40 23 42 69 117 158 46 1 0 0 0 8 12 0 1 14 37 21 19 7
2827 2644 2266 1337 1208 1336 934 855 596 564 702 861 789 1191 1268 1442 1041 505 196 219 217 94 64 52 60 86 64 34 18 10 0 0 0 0 4 20 24 37 6 1 0 0 0
2572 2405 2262 1459 1128 1217 940 799 779 694 637 705 1075 998 693 1038 669 318 94 192 121 129 320 289 217 87 49 6 2 18 21 26 37 38 26 61 1 0 0 0 0 0 0

GFSMA_con_mucape_033.txt.gz
CAPE
929 1621 1423 1665 1234 1675 1279 971 915 1353 1721 1500 1270 1329 968 1022 779 836 761 2216 2457 2272 2368 2438 2275 1542 1641 1663 1423 1104 696 842 1196 1363 1347 1114 732 755 1084 957 830 886 975
1042 1443 1699 1865 1327 950 1255 1377 1421 1450 1738 1262 1447 1519 1104 1085 1139 1204 1032 1502 2196 2218 2310 2401 2616 2480 1851 1727 1618 1904 1554 938 805 851 1348 1565 1558 1492 1239 1040 809 694 1199
1261 1293 1303 1344 1641 1430 1472 1026 1143 1300 1230 945 111 1458 1198 893 890 1345 1498 1302 1693 2493 2263 2913 2743 2795 2811 2254 1881 2075 2347 2309 1825 1387 1392 1364 1377 1579 1295 1721 1353 1438 1622
1590 1424 1535 1464 1893 1266 1039 892 1059 489 221 35 1 0 426 0 0 13 4 42 951 1454 2279 2297 2103 2473 2320 2247 1879 2303 2172 2348 2271 2001 1812 1494 1652 2014 2004 2023 1958 1610 1673
1899 1914 1741 1518 1633 1429 1340 1085 847 419 137 0 0 0 0 0 5 23 32 103 377 939 1189 1806 1594 2014 1714 1686 1605 1863 1681 2134 2060 2279 2277 2112 2052 2118 2101 2025 1888 1810 1966
2092 1488 1687 1835 1310 1349 953 875 686 333 4 4 0 0 0 0 0 66 147 178 515 626 958 1374 1039 1159 1804 1831 2048 2071 1867 1721 2264 1967 1842 2063 2240 2082 1888 1912 1968 1987 1982
1454 1544 1670 1700 1532 1289 739 581 192 0 0 15 0 0 15 3 1 57 30 25 57 614 806 804 727 1270 1157 1249 1607 1559 1666 1550 1649 1930 2045 1992 1969 2021 2025 1935 1965 1984 1927
1624 1498 1538 1394 1221 969 685 327 121 1 2 5 0 0 1 12 21 25 30 4 10 233 183 80 393 593 971 676 573 787 874 1098 1230 1175 1290 1299 1716 1692 1550 1348 1597 1684 1825
1855 1948 1881 1181 1117 896 646 378 43 0 0 0 0 0 6 17 51 138 24 6 0 0 0 0 0 163 887 202 107 0 2 64 264 285 286 506 588 663 836 965 1036 1231 1402
1803 1640 1514 1010 1327 984 766 158 0 2 0 3 2 0 0 5 20 63 33 5 0 0 0 0 0 22 252 201 0 0 0 0 0 0 0 0 10 74 209 299 417 714 1222
1731 1485 1733 1336 1122 803 387 16 1 23 41 59 27 98 16 0 0 0 12 17 19 1 0 0 0 0 0 0 0 0 0 0 0 0 0 0 0 0 0 0 0 4 273
1533 1554 1453 1354 1010 441 365 37 56 6 44 50 18 4 0 5 0 0 0 0 2 9 13 3 0 0 0 0 0 0 0 0 0 0 0 0 0 0 0 0 0 0 0
734 1650 970 1331 827 394 117 50 29 17 9 31 158 13 31 5 0 0 0 0 0 0 4 3 3 4 0 0 0 0 0 0 0 0 0 0 0 0 0 0 0 0 0
919 978 1404 1266 868 697 159 252 126 180 76 5 53 0 32 2 12 0 0 0 0 0 0 18 19 17 25 4 0 6 0 0 0 0 0 0 0 0 0 0 0 0 0
935 646 1597 1381 972 710 510 351 123 34 101 25 0 66 1 4 5 2 0 0 0 0 0 1 19 19 31 12 1 0 0 0 0 0 0 0 0 0 0 0 0 0 0
1518 862 1496 1447 1166 928 542 311 244 258 238 200 109 13 12 24 29 3 35 0 0 0 0 0 2 11 33 27 165 12 6 25 30 11 2 5 4 0 0 0 0 0 0
1733 1375 1450 1438 1205 980 598 522 259 309 415 63 202 72 198 104 16 0 30 4 3 0 0 0 0 35 89 56 65 37 31 6 10 22 22 34 13 0 0 0 0 0 0
1705 1394 1397 1421 1205 1065 812 600 423 307 166 380 199 73 21 11 0 0 15 18 28 13 4 0 12 25 42 10 37 13 98 81 11 29 26 23 16 0 0 0 0 0 0
2026 1638 1340 1300 1137 981 883 582 428 325 429 313 262 111 102 34 112 142 205 106 137 64 56 35 14 25 29 37 16 48 44 42 32 21 0 7 2 3 0 0 0 0 0
2371 2045 1634 1467 1253 1034 1007 872 673 417 263 390 403 334 235 124 132 204 16 29 81 68 70 71 50 30 7 9 19 0 0 0 0 0 0 0 0 0 0 0 0 0 0
2737 2427 2077 1759 1321 1010 967 825 765 627 489 406 402 333 311 318 350 324 146 36 49 74 40 2 0 0 0 0 5 16 16 0 0 0 0 0 0 0 0 0 0 0 0
3029 2875 2501 2197 1754 1464 1284 1028 703 666 598 634 384 404 339 530 650 580 399 261 152 68 38 0 0 0 0 2 10 6 1 0 0 0 0 0 0 0 0 0 0 0 0
3265 3315 3153 2938 2535 2030 1652 1115 778 607 732 751 494 410 568 338 356 430 390 271 188 63 22 15 0 0 0 0 9 16 12 0 0 0 0 0 0 0 0 0 0 0 0
3401 3394 3260 3076 2673 2908 1748 1026 618 700 777 691 644 695 531 579 504 404 372 252 243 96 26 26 2 13 0 5 30 43 43 0 0 0 0 0 0 1 0 0 0 0 0
3452 3334 3131 3141 2274 2493 1497 987 676 560 565 614 564 730 690 655 531 518 498 369 227 176 71 46 27 24 29 64 110 109 3 22 2 0 0 17 0 0 0 0 0 0 0
3458 3260 2707 2253 1927 1676 1181 785 684 518 660 586 490 477 474 442 502 583 448 297 224 139 53 140 165 88 51 45 0 3 19 17 20 11 0 0 0 0 0 0 0 0 0